This is the latest recevied weather packets stored in our database for station/object GW4288. If no packets are shown the sender has not sent any weather packets the latest 1 day(s).
| Time | Temp. | Humidity | Pressure | Rain* | Wind** | Luminosity | Snow |
|---|---|---|---|---|---|---|---|
| 1778171097 | 19.44° C | 57% | 1012.3 hPa | 0 mm | - | 112 W/m² | - |
| 1778170976 | 19.44° C | 57% | 1012.3 hPa | 0 mm | - | 118 W/m² | - |
| 1778170857 | 18.89° C | 58% | 1012.1 hPa | 0 mm | - | 127 W/m² | - |
| 1778170737 | 18.89° C | 59% | 1012.2 hPa | 0 mm | - | 135 W/m² | - |
| 1778170621 | 18.89° C | 59% | 1012.4 hPa | 0 mm | - | 143 W/m² | - |
| 1778170497 | 18.89° C | 60% | 1012.3 hPa | 0 mm | - | 150 W/m² | - |
| 1778170377 | 18.33° C | 60% | 1012.1 hPa | 0 mm | - | 86 W/m² | - |
| 1778170256 | 18.33° C | 61% | 1012.2 hPa | 0 mm | - | 90 W/m² | - |
| 1778170136 | 18.89° C | 59% | 1012.4 hPa | 0 mm | - | 118 W/m² | - |
| 1778170017 | 18.89° C | 61% | 1012.4 hPa | 0 mm | - | 164 W/m² | - |
| 1778169897 | 18.89° C | 60% | 1012.2 hPa | 0 mm | - | 187 W/m² | - |
| 1778169776 | 18.33° C | 60% | 1012.4 hPa | 0 mm | - | 190 W/m² | - |
| 1778169671 | 18.33° C | 61% | 1012.4 hPa | 0 mm | - | 194 W/m² | - |
| 1778169536 | 18.33° C | 61% | 1012.4 hPa | 0 mm | - | 120 W/m² | - |
| 1778169416 | 18.89° C | 61% | 1012.4 hPa | 0 mm | - | 102 W/m² | - |
| 1778169296 | 18.89° C | 61% | 1012.3 hPa | 0 mm | - | 197 W/m² | - |
| 1778169177 | 18.89° C | 62% | 1012.4 hPa | 0 mm | - | 117 W/m² | - |
| 1778169056 | 18.89° C | 60% | 1012.4 hPa | 0 mm | - | 128 W/m² | - |
| 1778168937 | 18.33° C | 62% | 1012.3 hPa | 0 mm | - | 147 W/m² | - |
| 1778168818 | 18.33° C | 61% | 1012.3 hPa | 0 mm | - | 109 W/m² | - |
| 1778168697 | 18.33° C | 61% | 1012.3 hPa | 0 mm | - | 132 W/m² | - |
| 1778168577 | 17.78° C | 62% | 1012.6 hPa | 0 mm | - | 169 W/m² | - |
| 1778168456 | 17.78° C | 62% | 1012.6 hPa | 0 mm | - | 114 W/m² | - |
| 1778168336 | 17.78° C | 61% | 1012.3 hPa | 0 mm | - | 98 W/m² | - |
| 1778168218 | 17.78° C | 61% | 1012.3 hPa | 0 mm | - | 92 W/m² | - |
* Rain latest hour (hover to see other rain measurements)
** Current wind speed in m/s (hover to see current wind gust speed)